Weather History for Luxor, Egypt

Change the Weather History Date:

Tuesday, December 31, 2013

  Actual Average Record
Temperature  
Mean Temperature 60 °F -  
Max Temperature 71 °F 70 °F - ()
Min Temperature 48 °F 44 °F - ()
Degree Days  
Heating Degree Days 6    
Growing Degree Days 10 (Base 50)    
Moisture  
Dew Point 47 °F    
Average Humidity 67    
Maximum Humidity 82    
Minimum Humidity 43    
Precipitation  
Precipitation 0.00 in 0.00 in - ()
Sea Level Pressure  
Sea Level Pressure 30.06 in    
Wind  
Wind Speed 2 mph ()    
Max Wind Speed 5 mph    
Max Gust Speed -    
Visibility 6.1 miles    
Events      
T = Trace of Precipitation, MM = Missing Value Source: Averaged Metar Reports

Daily Weather History Graph

Daily Weather History Graph

Search for Another Location

Airport:

Trip Planner

Search our weather history database for the weather conditions in past years. The results will help you decide how hot, cold, wet, or windy it might be!

Date:

Astronomy

Dec. 31, 2013 Rise Set
Actual Time 6:35 AM EET 5:09 PM EET
Civil Twilight 6:10 AM EET 5:34 PM EET
Nautical Twilight 5:41 AM EET 6:02 PM EET
Astronomical Twilight 5:13 AM EET 6:31 PM EET
Moon 5:11 AM EET (12/31) 4:18 PM EET (12/31)
Length of Visible Light 11h 24m
Length of Day
10h 33m
Waning Crescent, 2% of the Moon is Illuminated
Dec 31
Waning Crescent
Jan 1
New
Jan 8
First Quarter
Jan 16
Full
Jan 24
Last Quarter

Hourly Weather History & Observations

Time (EET) Temp. Dew Point Humidity Pressure Visibility Wind Dir Wind Speed Gust Speed Precip Events Conditions
12:00 AM 55.4 °F 48.2 °F 77% 30.04 in - SW 2.3 mph - N/A   Clear
1:00 AM 55.4 °F 48.2 °F 77% 30.04 in - SW 2.3 mph - N/A   Clear
2:00 AM 51 °F 44 °F 68% 30.06 in 6 mi SSE 2.3 mph - -  
2:00 AM 51.8 °F 44.6 °F 76% 30.04 in - SSE 2.3 mph - N/A   Clear
3:00 AM 50.0 °F 42.8 °F 76% 30.04 in - Calm Calm - N/A   Clear
4:00 AM 50.0 °F 44.6 °F 82% 30.04 in - SSE 2.3 mph - N/A   Clear
5:00 AM 50.0 °F 44.6 °F 82% 30.04 in - Calm Calm - N/A   Clear
6:00 AM 50.0 °F 44.6 °F 82% 30.06 in - Calm Calm - N/A   Clear
7:00 AM 48.2 °F 42.8 °F 82% 30.06 in - Calm Calm - N/A   Clear
8:00 AM 51.8 °F 44.6 °F 76% 30.09 in - SSE 2.3 mph - N/A   Clear
9:00 AM 59.0 °F 48.2 °F 67% 30.12 in - Calm Calm - N/A   Clear
10:00 AM 64.4 °F 50.0 °F 59% 30.12 in - Calm Calm - N/A   Clear
11:00 AM 66 °F 50 °F 47% 30.10 in 6 mi WNW 4.6 mph - -  
1:00 PM 69.8 °F 50.0 °F 49% 30.04 in 6.2 mi Calm Calm - N/A   Partly Cloudy
2:00 PM 69.8 °F 48.2 °F 46% 30.01 in 6.2 mi North 4.6 mph - N/A   Partly Cloudy
3:00 PM 71.6 °F 48.2 °F 43% 30.01 in - North 2.3 mph - N/A   Clear
4:00 PM 69.8 °F 48.2 °F 46% 30.01 in - NNW 2.3 mph - N/A   Clear
5:00 PM 68.0 °F 50.0 °F 52% 30.01 in - NW 2.3 mph - N/A   Clear
7:00 PM 60.8 °F 50.0 °F 68% 30.06 in - West 4.6 mph - N/A   Clear
8:00 PM 59.0 °F 50.0 °F 72% 30.06 in - WSW 2.3 mph - N/A   Clear
9:00 PM 57.2 °F 48.2 °F 72% 30.09 in - SW 2.3 mph - N/A   Clear
10:00 PM 57.2 °F 46.4 °F 67% 30.09 in - South 2.3 mph - N/A   Clear
11:00 PM 55.4 °F 46.4 °F 72% 30.09 in - SSE 2.3 mph - N/A   Clear